This demonstration page uses our WeatherBlox Daily Observations layout. Learn more.

Left ArrowRight Arrow

31.84235, -102.49876

Hourly Observations for July 30, 2022

Temp ( °F °C ) Dew Point ( °F °C ) Humidity (%) Winds ( mph kmh ) Pressure ( in mb ) Visibility ( mi km ) Precip ( " mm )
12:53 am 00:53 Clear 86 30 55 12.8 35 35 S 10 17 29.91 1013 10 16 0.00 0.00
1:53 am 01:53 Clear 84 28.9 55 12.8 37 37 S 7 11 29.92 1013 10 16 0.00 0.00
2:53 am 02:53 Clear 83 28.3 56 13.3 40 40 S 9 15 29.92 1013 10 16 0.00 0.00
3:53 am 03:53 Clear 82 27.8 56 13.3 41 41 S 10 17 29.91 1013 10 16 0.00 0.00
4:53 am 04:53 Clear 81 27.2 57 13.9 44 44 SSE 10 17 29.93 1013 10 16 0.00 0.00
5:53 am 05:53 Clear 80 26.7 58 14.4 47 47 S 10 17 29.93 1014 10 16 0.00 0.00
6:53 am 06:53 Clear 79 26.1 59 15 50 50 SSE 9 15 29.96 1015 10 16 0.00 0.00
7:53 am 07:53 Sunny 79 26.1 61 16.1 54 54 SSE 13 20 29.98 1015 10 16 0.00 0.00
8:53 am 08:53 Sunny 81 27.2 63 17.2 54 54 S 16 26 30.00 1016 10 16 0.00 0.00
9:53 am 09:53 Sunny 84 28.9 63 17.2 49 49 S 16 26 29.99 1016 10 16 0.00 0.00
10:53 am 10:53 Sunny 88 31.1 61 16.1 40 40 S 18 30 29.99 1016 10 16 0.00 0.00
11:53 am 11:53 Sunny 91 32.8 59 15 34 34 S 16 26 29.98 1015 10 16 0.00 0.00
12:53 pm 12:53 Sunny 94 34.4 58 14.4 30 30 S 16 26 29.98 1015 10 16 0.00 0.00
1:53 pm 13:53 Sunny 95 35 55 12.8 26 26 S 14 22 29.96 1014 10 16 0.00 0.00
2:53 pm 14:53 Sunny 96 35.6 54 12.2 24 24 SE 12 19 29.93 1014 10 16 0.00 0.00
3:53 pm 15:53 Sunny 97 36.1 53 11.7 23 23 S 17 28 29.91 1013 10 16 0.00 0.00
4:53 pm 16:53 Sunny 98 36.7 51 10.6 20 20 S 12 19 29.89 1012 10 16 0.00 0.00
5:53 pm 17:53 Sunny 98 36.7 51 10.6 20 20 SSE 10 17 29.87 1012 10 16 0.00 0.00
6:53 pm 18:53 Sunny 97 36.1 50 10 20 20 SSE 13 20 29.86 1011 10 16 0.00 0.00
7:53 pm 19:53 Sunny 96 35.6 49 9.4 20 20 S 15 24 29.87 1012 10 16 0.00 0.00
8:53 pm 20:53 Clear 93 33.9 49 9.4 22 22 SSE 10 17 29.88 1012 10 16 0.00 0.00
9:53 pm 21:53 Clear 91 32.8 50 10 25 25 SSE 12 19 29.91 1013 10 16 0.00 0.00
10:53 pm 22:53 Clear 89 31.7 52 11.1 28 28 SSE 12 19 29.93 1014 10 16 0.00 0.00
11:53 pm 23:53 Clear 88 31.1 53 11.7 30 30 S 15 24 29.95 1014 10 16 0.00 0.00

Powered by AerisWeather